Location: Unspecified
(0.0000°N, 0.0000°E)
Time: 13:06:26
(UTC+00:00)

Kosmos-2213 - Pass Details

Date: 18 November 2025
Orbit: 1409 x 1415 km, 82.6° (Epoch: 13 December)

Event Time Altitude Azimuth Distance (km) Brightness Sun altitude
Rises 03:23:50 0° 169° (SSE) 4,484 10.4 -33.1°
Reaches altitude 10° 03:26:52 10° 162° (SSE) 3,506 9.8 -32.4°
Maximum altitude 03:34:39 43° 93° (E) 1,893 8.3 -30.6°
Drops below altitude 10° 03:42:24 10° 25° (NNE) 3,499 9.4 -28.8°
Sets 03:45:23 0° 18° (NNE) 4,473 9.9 -28.1°
